Location: Brzeziny Ma?e
(50.7676°N, 19.1030°E)
Time: 22:38:40
(UTC+00:00)

Daily predictions for brighter satellites

Satellite Brightness Start Highest point End
(mag) Time Altitude Azimuth Time Altitude Azimuth Time Altitude Azimuth
Meteor 1-12 Rocket 4.3 15:37:49 10° N 15:43:32 68° ENE 15:49:18 10° SSE
Cosmos 1980 Rocket 4.3 15:41:55 10° WNW 15:44:53 14° NNW 15:47:51 10° N
Cosmos 1898 Rocket 4.2 15:42:49 10° NNW 15:47:38 34° NE 15:52:26 10° ESE
Cosmos 2228 Rocket 4.3 15:44:46 10° SE 15:48:24 24° E 15:52:03 10° NNE
PSLV R/B 3.4 15:53:50 10° SSE 15:57:48 58° ENE 16:01:51 10° N
Meteor 1-23 Rocket 4.2 15:56:06 10° S 16:01:41 78° E 16:07:17 10° NNE
Okean 1-7 4.4 16:00:12 10° SE 16:03:07 18° E 16:06:01 10° NE
ATLAS 2AS CENTAUR R/B 3.1 15:57:19 10° NW 16:03:50 42° NNE 16:10:10 10° E
SMAP 3.1 16:00:13 10° SSE 16:04:53 86° WSW 16:09:35 10° NNW
NOSS 0 Rocket 4.2 15:59:07 10° S 16:04:57 48° ESE 16:10:51 10° NE
Lacrosse 5 4.3 16:01:23 10° WNW 16:05:36 26° SW 16:09:48 10° S
Cosmos 1953 2.4 16:04:05 10° N 16:07:41 44° ENE 16:11:16 10° SSE
Cosmos 1818 4.1 16:04:24 10° NNW 16:09:32 38° NE 16:14:36 10° ESE
SL-16 R/B 3.8 16:03:49 10° N 16:09:37 41° WNW 16:15:25 10° SW
Cosmos 2369 Rocket 3.4 16:07:05 10° NNW 16:11:20 21° NE 16:15:05 12° E
ACS3 Solar Sail 2.3 16:06:54 10° SE 16:12:44 39° ENE 16:18:34 10° N
CZ-2D R/B 4.1 16:08:59 10° S 16:13:12 64° WSW 16:17:25 10° NNW
COSMOS 2428 2.7 16:08:31 10° SSW 16:14:13 83° ESE 16:19:57 10° NNE
Cosmos 2333 Rocket 3.7 16:10:41 10° WSW 16:15:42 32° NW 16:20:46 10° NNE
Cosmos 1634 Rocket 4.2 16:09:29 10° NNW 16:15:50 80° W 16:22:08 10° S
Cosmos 990 Rocket 4.2 16:11:37 10° NNW 16:16:53 77° WSW 16:22:06 10° SSE
Cosmos 372 Rocket 4.1 16:13:13 10° NNW 16:18:12 51° ENE 16:23:10 10° SE
DNEPR-1 R/B 3.6 16:13:19 10° NW 16:18:22 81° NE 16:22:42 10° SE
Cosmos 1174 3.9 16:15:57 10° NW 16:19:31 79° SW 16:23:50 10° SSE
IGS 5A 3.3 16:18:00 10° SSE 16:22:01 84° ENE 16:26:04 10° NNW
Cosmos 2322 Rocket 3.9 16:20:35 10° W 16:25:12 25° NW 16:29:52 10° NNE
Meteor 1-16 Rocket 4.2 16:21:25 10° NNW 16:26:54 87° W 16:32:31 10° S
AQUARIUS 4.3 16:23:01 10° S 16:27:26 76° WSW 16:31:54 10° NNW
Cosmos 2360 Rocket 3.8 16:23:19 10° W 16:28:09 28° NW 16:33:01 10° NNE
Cosmos 1908 Rocket 4.3 16:25:40 10° N 16:29:29 29° ENE 16:33:15 10° SE
Dummy Sat-02 4.4 16:26:20 10° S 16:29:57 79° E 16:33:37 10° N
Cosmos 2142 Rocket 4.4 16:24:36 10° N 16:30:51 78° ENE 16:37:09 10° SSE
BREEZE-M TANK 4.1 16:28:07 10° W 16:31:28 35° S 16:36:31 10° SE
Cosmos 2344 3.5 16:24:27 10° SW 16:32:02 79° SE 16:38:46 13° NE
Meteor 2-17 Rocket 4.4 16:26:04 10° S 16:32:09 87° E 16:38:15 10° N
SL-16 R/B 4.3 16:31:50 10° WNW 16:35:38 18° NNW 16:39:27 10° N
Cosmos 1707 Rocket 3.5 16:32:52 10° S 16:37:16 68° E 16:41:41 10° NNE
Okean 3 3.3 16:33:25 10° S 16:37:30 74° E 16:41:38 10° NNE
Cosmos 1937 Rocket 3.5 16:32:55 10° NNW 16:38:00 57° ENE 16:43:05 10° SE
Meteor 1-31 Rocket 2.8 16:35:35 10° SE 16:38:58 43° ENE 16:42:23 10° N
Okean 2 3.2 16:37:58 10° S 16:41:53 65° E 16:45:49 10° NNE
CZ-4 R/B 4.3 16:41:17 10° SSE 16:45:18 85° ENE 16:49:20 10° NNW
Cosmos 1943 Rocket 2.5 16:39:43 10° NNW 16:45:23 70° WSW 16:50:57 10° SSE
CZ-2C R/B 3.1 16:48:33 32° ENE 16:48:33 32° ENE 16:51:34 10° N
Cosmos 2237 Rocket 2.2 16:45:42 10° SSW 16:51:21 71° ESE 16:56:08 15° NE
RESURS DK-1 3.0 16:48:23 10° NW 16:52:20 57° WSW 16:56:17 10° SSE
Cosmos 1862 Rocket 3.5 16:50:47 10° S 16:55:10 89° W 16:59:37 10° N
BlueWalker 3 1.7 16:54:55 10° WNW 16:58:35 78° NNE 16:59:50 39° E
Cosmos 2278 Rocket 3.4 16:53:58 10° NW 16:59:20 44° WSW 17:04:39 10° S
BREEZE-M DEB (TANK) 1.7 16:57:07 10° WSW 16:59:24 56° SSE 17:00:09 40° ESE
COSMO-SKYMED 1 2.5 16:55:57 10° NNE 17:00:20 77° ESE 17:04:40 10° S
NOAA 6 3.9 16:55:48 10° SSE 17:00:53 78° ENE 17:06:03 10° NNW
Cosmos 2219 Rocket 3.9 16:58:30 10° W 17:03:13 27° NW 17:07:59 10° NNE
CZ-4B R/B 3.4 17:00:20 10° SSE 17:03:55 82° ENE 17:07:29 10° NNW
Cosmos 1782 Rocket 4.3 17:01:22 10° N 17:04:31 31° NE 17:04:31 31° NE
ISS -3.5 17:02:22 10° SW 17:05:38 53° SSE 17:06:06 47° ESE
CZ-4C R/B 2.0 17:01:30 10° SSW 17:05:48 54° SE 17:08:01 31° ENE
Nadezhda 4 Rocket 3.8 17:02:44 10° S 17:08:49 74° E 17:14:59 10° NNE
YAOGAN 1 2.4 17:08:41 10° SSE 17:12:57 86° ENE 17:17:15 10° NNW
Cosmos 1763 Rocket 4.4 17:08:27 10° SW 17:13:27 46° WNW 17:18:24 10° NNE
USA 306 2.7 17:11:15 10° WNW 17:12:55 39° NW 17:12:55 39° NW
YAOGAN 11 4.3 17:14:12 42° E 17:14:13 42° E 17:18:16 10° S
ATLAS 5 CENTAUR R/B 2.3 17:12:40 10° S 17:14:21 23° SSE 17:14:21 23° SSE
Meteor 1-24 Rocket 4.4 17:10:48 10° SSE 17:15:51 33° E 17:15:51 33° E
Cosmos 540 Rocket 4.2 17:14:07 10° SW 17:19:07 51° WNW 17:23:47 12° NNE
Landsat 7 4.4 17:14:33 10° S 17:19:10 57° W 17:23:49 10° NNW
USA 215 3.6 17:16:12 27° NE 17:19:41 54° N 17:26:01 10° W
SPOT 1/Viking Rocket 3.4 17:15:36 10° SSE 17:20:43 70° ENE 17:25:52 10° N
Cosmos 468 Rocket 4.5 17:17:51 10° SW 17:22:59 59° WNW 17:27:14 15° NNE
Cosmos 1703 Rocket 3.5 17:19:33 10° S 17:23:57 61° E 17:25:04 45° NE
Meteor 2-5 Rocket 4.5 17:21:02 10° SSE 17:25:03 33° ESE 17:25:03 33° ESE
Cosmos 2228 Rocket 4.3 17:21:56 10° SSW 17:26:16 44° WNW 17:30:39 10° N
Resurs 1-3 3.4 17:24:15 10° SSE 17:28:34 78° ENE 17:32:54 10° NNW
Cosmos 1656 Rocket 3.5 17:24:36 10° NNW 17:30:06 77° ENE 17:33:23 25° SE
Cosmos 841 Rocket 3.4 17:27:03 10° SSW 17:32:19 89° ESE 17:35:00 30° NNE
Cosmos 1703 3.5 17:33:42 10° SSW 17:36:27 52° SSW 17:36:27 52° SSW
Cosmos 1553 Rocket 4.1 17:32:43 10° N 17:38:41 48° ENE 17:39:07 47° E
Okean 1-7 3.7 17:35:40 10° SSW 17:39:52 53° WNW 17:43:22 14° N
SL-16 R/B 2.2 17:35:05 10° S 17:40:34 54° ESE 17:40:55 53° E
Cosmos 1980 4.3 17:35:45 10° SW 17:41:16 54° NW 17:44:57 21° NNE
Cosmos 1300 Rocket 4.5 17:40:07 10° N 17:42:41 35° N 17:42:41 35° N
ADEOS 3.4 17:48:47 67° E 17:48:56 67° ENE 17:54:07 10° N
Cosmos 1818 4.1 17:47:59 10° NW 17:53:21 58° WSW 17:56:19 26° SSE
Resurs 01 Rocket 3.7 17:57:26 17° N 17:57:26 17° N 17:58:26 10° N
Cosmos 1092 Rocket 3.8 17:48:34 10° S 17:54:43 83° E 18:01:01 10° N
DMSP B5D1-3 4.3 17:53:59 63° NNE 17:54:48 85° ESE 17:59:54 10° SSW
ATLAS 2AS CENTAUR R/B 2.8 17:48:25 10° NW 17:55:12 71° SW 17:59:05 26° SSE
ACS3 Solar Sail 2.8 17:50:01 10° S 17:56:11 48° W 18:02:22 10° NNW
Cosmos 2369 Rocket 2.0 17:50:37 10° NNW 17:56:15 81° ENE 17:56:55 69° SE
Cosmos 839 Rocket 4.3 17:50:15 10° SSW 17:55:54 47° SE 17:55:54 47° SE
BREEZE-M DEB (TANK) 3.7 18:02:31 10° W 18:07:22 50° WSW 18:07:22 50° WSW
PAYLOAD B 4.5 18:12:31 56° N 18:12:31 56° N 18:17:00 10° NNW
CZ-4B DEB 4.1 18:12:00 84° S 18:12:12 88° WSW 18:17:44 10° NNW
Cosmos 2297 4.0 18:13:32 10° NW 18:19:14 65° WSW 18:20:18 54° SSW
Cosmos 2263 4.3 18:14:30 10° NNW 18:19:34 71° NNW 18:19:34 71° NNW
Cosmos 2026 Rocket 4.4 18:17:20 10° SSW 18:23:39 62° WNW 18:29:58 10° N
Cosmos 1932 4.4 18:19:47 10° SW 18:25:50 83° W 18:25:50 83° W
BREEZE-M DEB (TANK) 3.5 18:20:32 10° WSW 18:28:56 60° WSW 18:28:56 60° WSW
Cosmos 2237 Rocket 3.9 18:31:02 10° WSW 18:35:55 29° NW 18:37:58 23° N
ISS -0.1 18:38:59 10° W 18:39:01 10° W 18:39:01 10° W
Cosmos 2344 4.4 18:40:22 10° W 18:47:07 39° NNW 18:48:47 35° N
CZ-4C R/B 3.4 18:49:47 10° W 18:53:04 34° WNW 18:53:04 34° WNW
USA 215 3.9 19:03:33 49° NNW 19:03:33 49° NNW 19:08:36 10° WNW
SL-16 R/B 4.0 19:19:47 10° WSW 19:22:50 26° W 19:22:50 26° W
Cosmos 2369 Rocket 4.5 19:35:43 10° NW 19:38:45 19° W 19:38:45 19° W
